| time (UTC) | temp F | wind direction | speed knots | gust knots | rain 1hr in | rain 24hr in | rain mn in | humidity % | barometer mb |
| 20260505223013 | 52 | 131 | 0.0 | 0.0 | 0.00 | 0.24 | 0.00 | 93 | 1011.7 |
| 20260505221511 | 52 | 131 | 0.0 | 0.9 | 0.00 | 0.24 | 0.00 | 93 | 1012.1 |
| 20260505220008 | 52 | 150 | 0.0 | 0.9 | 0.00 | 0.27 | 0.24 | 93 | 1012.4 |
| 20260505214508 | 52 | 106 | 0.0 | 0.9 | 0.00 | 0.27 | 0.24 | 93 | 1012.2 |
| 20260505213008 | 52 | 99 | 0.0 | 1.7 | 0.00 | 0.27 | 0.24 | 93 | 1012.4 |
| 20260505211507 | 52 | 266 | 0.0 | 0.0 | 0.00 | 0.27 | 0.24 | 93 | 1012.6 |
| 20260505210006 | 52 | 266 | 0.0 | 0.0 | 0.00 | 0.33 | 0.24 | 93 | 1012.8 |
| 20260505204506 | 52 | 266 | 0.0 | 0.0 | 0.00 | 0.33 | 0.24 | 93 | 1012.9 |
| 20260505203006 | 52 | 266 | 0.0 | 0.9 | 0.00 | 0.33 | 0.24 | 93 | 1012.9 |
| 20260505201511 | 52 | 266 | 0.0 | 0.0 | 0.00 | 0.33 | 0.24 | 93 | 1012.9 |
| 20260505200004 | 52 | 266 | 0.0 | 0.0 | 0.00 | 0.43 | 0.24 | 92 | 1012.7 |
| 20260505194504 | 53 | 266 | 0.0 | 0.0 | 0.00 | 0.43 | 0.24 | 92 | 1012.7 |
| 20260505193003 | 53 | 266 | 0.0 | 0.9 | 0.00 | 0.43 | 0.24 | 92 | 1012.5 |
| 20260505191503 | 53 | 266 | 0.0 | 0.9 | 0.00 | 0.43 | 0.24 | 92 | 1012.6 |
| 20260505190003 | 53 | 277 | 0.0 | 1.7 | 0.00 | 0.50 | 0.24 | 91 | 1012.4 |
| 20260505184502 | 53 | 257 | 0.0 | 0.0 | 0.00 | 0.50 | 0.24 | 91 | 1012.4 |
| 20260505183001 | 53 | 257 | 0.0 | 0.0 | 0.00 | 0.50 | 0.24 | 91 | 1012.3 |
| 20260505181600 | 53 | 257 | 0.0 | 0.9 | 0.00 | 0.50 | 0.24 | 90 | 1012.4 |
| 20260505180104 | 54 | 257 | 0.0 | 0.9 | 0.00 | 0.50 | 0.24 | 90 | 1012.2 |
| 20260505174604 | 54 | 258 | 0.0 | 0.9 | 0.00 | 0.61 | 0.24 | 89 | 1012.2 |
| 20260505173100 | 54 | 262 | 0.9 | 1.7 | 0.01 | 0.61 | 0.24 | 89 | 1012.1 |
| 20260505171558 | 54 | 269 | 0.9 | 2.6 | 0.01 | 0.61 | 0.24 | 88 | 1012.3 |
| 20260505170058 | 55 | 257 | 0.0 | 2.6 | 0.01 | 0.61 | 0.24 | 88 | 1012.2 |
| 20260505164604 | 55 | 350 | 0.0 | 3.5 | 0.01 | 0.65 | 0.24 | 87 | 1012.2 |
| 20260505163056 | 55 | 244 | 0.9 | 2.6 | 0.00 | 0.65 | 0.23 | 85 | 1012.5 |
| 20260505161603 | 56 | 270 | 0.0 | 0.9 | 0.00 | 0.65 | 0.23 | 84 | 1012.5 |
| 20260505153101 | 56 | 5 | 0.0 | 2.6 | 0.00 | 0.65 | 0.23 | 82 | 1012.3 |
| 20260505151604 | 57 | 104 | 0.0 | 0.9 | 0.00 | 0.65 | 0.23 | 81 | 1012.3 |
| 20260505140107 | 55 | 254 | 0.0 | 0.9 | 0.00 | 0.66 | 0.23 | 82 | 1013.1 |
| 20260505124541 | 54 | 89 | 0.0 | 0.9 | 0.00 | 0.69 | 0.23 | 84 | 1013.3 |
| 20260505123047 | 54 | 94 | 0.0 | 2.6 | 0.00 | 0.69 | 0.23 | 82 | 1013.3 |
| 20260505121540 | 54 | 218 | 0.0 | 2.6 | 0.00 | 0.69 | 0.23 | 82 | 1013.4 |
| 20260505120044 | 54 | 250 | 0.9 | 1.7 | 0.00 | 0.69 | 0.23 | 82 | 1013.4 |
| 20260505114544 | 53 | 162 | 0.0 | 1.7 | 0.00 | 0.69 | 0.23 | 83 | 1013.4 |
| 20260505113033 | 53 | 124 | 0.0 | 0.9 | 0.00 | 0.69 | 0.23 | 82 | 1013.6 |
| 20260505111532 | 53 | 122 | 0.0 | 0.9 | 0.00 | 0.69 | 0.23 | 84 | 1013.6 |
| 20260505101533 | 51 | 137 | 0.0 | 1.7 | 0.01 | 0.69 | 0.23 | 89 | 1014.0 |
| 20260505100017 | 51 | 103 | 0.0 | 2.6 | 0.01 | 0.69 | 0.23 | 90 | 1014.1 |
| 20260505094516 | 51 | 91 | 0.0 | 2.6 | 0.01 | 0.69 | 0.23 | 90 | 1013.9 |
| 20260505093008 | 51 | 113 | 0.0 | 0.9 | 0.01 | 0.69 | 0.23 | 89 | 1014.0 |
| 20260505091504 | 50 | 249 | 0.0 | 1.7 | 0.00 | 0.68 | 0.22 | 89 | 1013.6 |
| 20260505090012 | 50 | 266 | 0.0 | 1.7 | 0.00 | 0.68 | 0.22 | 91 | 1013.6 |
| 20260505084503 | 50 | 267 | 0.0 | 0.9 | 0.00 | 0.68 | 0.22 | 92 | 1013.4 |
| 20260505083104 | 49 | 267 | 0.0 | 1.7 | 0.00 | 0.68 | 0.22 | 93 | 1013.4 |
| 20260505081607 | 49 | 269 | 0.0 | 2.6 | 0.00 | 0.68 | 0.22 | 93 | 1013.4 |
| 20260505074558 | 48 | 275 | 0.0 | 2.6 | 0.00 | 0.68 | 0.22 | 94 | 1013.4 |
| 20260505073124 | 48 | 269 | 0.0 | 1.7 | 0.00 | 0.68 | 0.22 | 93 | 1013.4 |
| 20260505071602 | 48 | 359 | 0.0 | 1.7 | 0.01 | 0.68 | 0.22 | 94 | 1013.4 |
| 20260505064556 | 46 | 269 | 0.9 | 4.3 | 0.01 | 0.68 | 0.22 | 94 | 1013.4 |
| 20260505063055 | 47 | 323 | 0.0 | 3.5 | 0.01 | 0.68 | 0.22 | 94 | 1013.5 |
| 20260505061554 | 47 | 342 | 0.0 | 1.7 | 0.00 | 0.67 | 0.21 | 95 | 1013.5 |
| 20260505060054 | 46 | 253 | 0.0 | 4.3 | 0.00 | 0.67 | 0.21 | 94 | 1013.5 |
| 20260505054551 | 45 | 295 | 1.7 | 7.8 | 0.00 | 0.67 | 0.21 | 94 | 1013.7 |
| 20260505053048 | 45 | 288 | 1.7 | 5.2 | 0.01 | 0.67 | 0.21 | 94 | 1013.9 |
| 20260505051558 | 46 | 317 | 0.9 | 5.2 | 0.03 | 0.67 | 0.21 | 94 | 1013.7 |
| 20260505041538 | 47 | 333 | 0.0 | 0.0 | 0.09 | 0.64 | 0.18 | 95 | 1014.0 |
| 20260505040037 | 47 | 333 | 0.0 | 0.9 | 0.08 | 0.61 | 0.15 | 95 | 1014.1 |
| 20260505034533 | 48 | 340 | 0.9 | 3.5 | 0.08 | 0.57 | 0.13 | 95 | 1014.3 |
| 20260505033036 | 48 | 328 | 0.0 | 0.9 | 0.07 | 0.56 | 0.10 | 95 | 1014.5 |
| 20260505031532 | 48 | 282 | 0.0 | 1.7 | 0.08 | 0.55 | 0.09 | 95 | 1014.5 |
| 20260505030032 | 48 | 266 | 0.0 | 0.9 | 0.06 | 0.53 | 0.07 | 95 | 1014.5 |
| 20260505024532 | 48 | 265 | 0.0 | 0.9 | 0.05 | 0.50 | 0.05 | 95 | 1014.5 |
| 20260505023030 | 48 | 359 | 0.0 | 0.9 | 0.03 | 0.49 | 0.03 | 95 | 1014.5 |
| 20260505021531 | 48 | 348 | 0.0 | 0.9 | 0.02 | 0.47 | 0.02 | 95 | 1014.5 |
| 20260505020028 | 48 | 335 | 0.0 | 3.5 | 0.01 | 0.46 | 0.01 | 95 | 1014.5 |
| 20260505014526 | 48 | 265 | 0.0 | 0.0 | 0.00 | 0.46 | 0.00 | 95 | 1014.3 |
| 20260505013025 | 48 | 265 | 0.0 | 0.9 | 0.00 | 0.46 | 0.00 | 95 | 1014.2 |
| 20260505011525 | 48 | 269 | 0.0 | 1.7 | 0.00 | 0.46 | 0.00 | 95 | 1014.5 |
| 20260505010021 | 49 | 267 | 0.0 | 1.7 | 0.00 | 0.46 | 0.00 | 95 | 1014.7 |
| 20260505004523 | 49 | 269 | 0.0 | 0.9 | 0.00 | 0.46 | 0.00 | 95 | 1015.0 |
| 20260505003017 | 49 | 264 | 0.0 | 0.9 | 0.00 | 0.46 | 0.00 | 95 | 1015.5 |
| 20260505001516 | 49 | 271 | 0.0 | 1.7 | 0.00 | 0.46 | 0.00 | 95 | 1016.0 |
| 20260505000022 | 49 | 264 | 0.0 | 1.7 | 0.00 | 0.46 | 0.00 | 95 | 1016.3 |
| 20260504234511 | 49 | 268 | 0.0 | 1.7 | 0.00 | 0.46 | 0.00 | 95 | 1016.4 |
| 20260504233012 | 48 | 284 | 0.0 | 0.9 | 0.00 | 0.46 | 0.00 | 95 | 1016.7 |
| 20260504231510 | 48 | 285 | 0.0 | 1.7 | 0.00 | 0.46 | 0.00 | 95 | 1016.8 |
| 20260504230007 | 48 | 360 | 0.0 | 0.9 | 0.00 | 0.46 | 0.00 | 95 | 1016.9 |
| 20260504224505 | 48 | 359 | 0.0 | 2.6 | 0.00 | 0.46 | 0.00 | 95 | 1017.0 |